Overview Statistics Trail Chart Weather Telemetry Raw packets
 

This is the latest recevied weather packets stored in our database for station/object TB1YZC-13. If no packets are shown the sender has not sent any weather packets the latest 10 day(s).

<< 15 16 17 18 19 20 21 >>
Time Temp. Humidity Pressure Rain* Wind** Luminosity Snow
1788426023 26.67° C 59% 1017.6 hPa - - - -
1788425419 26.67° C 59% 1017.7 hPa - - - -
1788424817 26.67° C 59% 1017.8 hPa - - - -
1788424213 26.67° C 58% 1017.8 hPa - - - -
1788423610 26.11° C 62% 1017.9 hPa - - - -
1788423007 27.22° C 59% 1018 hPa - - - -
1788422403 26.11° C 59% 1018 hPa - - - -
1788421800 26.67° C 62% 1017.9 hPa - - - -
1788421197 26.67° C 64% 1018 hPa - - - -
1788420593 26.11° C 66% 1018 hPa - - - -
1788419990 25.56° C 67% 1018 hPa - - - -
1788419387 26.11° C 67% 1018 hPa - - - -
1788418784 24.44° C 72% 1018.1 hPa - - - -
1788418181 25.56° C 72% 1017.9 hPa - - - -
1788417578 24.44° C 78% 1018 hPa - - - -
1788416975 23.89° C 81% 1018 hPa - - - -
1788416372 23.89° C 82% 1018 hPa - - - -
1788415769 24.44° C 83% 1017.9 hPa - - - -
1788415166 23.89° C 84% 1018 hPa - - - -
1788414562 23.89° C 84% 1017.9 hPa - - - -
1788413959 23.33° C 85% 1018.1 hPa - - - -
1788413356 22.78° C 86% 1018.3 hPa - - - -
1788412753 23.33° C 86% 1018.3 hPa - - - -
1788412149 22.22° C 89% 1018.4 hPa - - - -
1788411546 22.22° C 90% 1018.5 hPa - - - -

* Rain since midnight (hover to see other rain measurements)
** Current wind speed in m/s (hover to see current wind gust speed)